Location: Grand Rapids
(42.9630°N, 85.6680°W)
Time: 03:39:22
(UTC-04:00)

S-56A Canister/Altair - Pass Details

Date: 31 May 2024
Orbit: 637 x 2489 km, 38.9° (Epoch: 22 June)

Event Time Altitude Azimuth Distance (km) Brightness Sun altitude
Rises 12:18:11 0° 280° (W) 5,129 11.5 63.0°
Reaches altitude 10° 12:23:56 10° 259° (W) 3,684 11.0 63.7°
Maximum altitude 12:28:07 14° 232° (SW) 3,029 10.7 64.2°
Drops below altitude 10° 12:31:41 10° 203° (SSW) 3,022 10.9 64.7°
Sets 12:35:34 0° 178° (S) 3,643 11.3 65.1°
